This demonstration page uses our WeatherBlox Daily Observations layout. Learn more.

38.88101, -77.10428

Hourly Observations for October 17, 2016

Temp ( °F °C ) Dew Point ( °F °C ) Humidity (%) Winds ( mph kmh ) Pressure ( in mb ) Visibility ( mi km ) Precip ( " mm )
12:52 am 00:52 Mostly Cloudy 63 17.2 62 16.7 97 97 SSW 6 9 30.06 1018 10 16.09344 0 0
1:52 am 01:52 Mostly Clear 62 16.7 61 16.1 96 96 S 7 11 30.06 1018 10 16.09344 0 0
2:52 am 02:52 Mostly Clear 63 17.2 61 16.1 93 93 Calm 30.06 1018 10 16.09344 0 0
3:52 am 03:52 Mostly Clear 62 16.7 61 16.1 96 96 SW 3 6 30.03 1017 10 16.09344 0 0
4:52 am 04:52 Mostly Clear 61 16.1 60 15.6 97 97 SSW 5 7 30.03 1017 9 14.484096 0 0
5:52 am 05:52 Partly Cloudy 60 15.6 60 15.6 100 100 SW 3 6 30.03 1017 10 16.09344 0 0
6:52 am 06:52 Mostly Cloudy 60 15.6 60 15.6 100 100 SSW 5 7 30.03 1017 9 14.484096 0 0
7:52 am 07:52 Mostly Cloudy 61 16.1 61 16.1 100 100 S 5 7 30.03 1017 7 11.265408 0 0
8:52 am 08:52 Partly Cloudy 63 17.2 62 16.7 97 97 S 6 9 30.03 1017 8 12.874752 0 0
9:52 am 09:52 Mostly Sunny 64 17.8 63 17.2 96 96 S 7 11 30.03 1017 8 12.874752 0 0
10:52 am 10:52 Mostly Sunny 69 20.6 64 17.8 84 84 S 6 9 30.03 1017 10 16.09344 0 0
11:52 am 11:52 Mostly Sunny 74 23.3 64 17.8 71 71 S 7 11 30 1016 10 16.09344 0 0
12:52 pm 12:52 Mostly Sunny 77 25 65 18.3 66 66 S 8 13 30 1016 10 16.09344 0 0
1:52 pm 13:52 Mostly Sunny 81 27.2 61 16.1 51 51 S 9 15 29.97 1015 10 16.09344 0 0
2:52 pm 14:52 Mostly Sunny 79 26.1 63 17.2 58 58 S 10 17 29.94 1014 10 16.09344 0 0
3:52 pm 15:52 Partly Cloudy 80 26.7 63 17.2 56 56 S 12 19 29.91 1013 10 16.09344 0 0
4:52 pm 16:52 Mostly Sunny 78 25.6 64 17.8 62 62 S 9 15 29.91 1013 10 16.09344 0 0
5:52 pm 17:52 Mostly Sunny 79 26.1 63 17.2 58 58 S 9 15 29.91 1013 10 16.09344 0 0
6:52 pm 18:52 Mostly Clear 73 22.8 64 17.8 74 74 S 8 13 29.91 1013 10 16.09344 0 0
7:52 pm 19:52 Partly Cloudy 71 21.7 63 17.2 76 76 S 8 13 29.94 1014 10 16.09344 0 0
8:52 pm 20:52 Partly Cloudy 68 20 63 17.2 84 84 S 8 13 29.94 1014 10 16.09344 0 0
9:52 pm 21:52 Partly Cloudy 69 20.6 63 17.2 81 81 S 8 13 29.94 1014 10 16.09344 0 0
10:52 pm 22:52 Mostly Clear 67 19.4 64 17.8 91 91 S 6 9 29.94 1014 10 16.09344 0 0
11:52 pm 23:52 Mostly Clear 67 19.4 63 17.2 87 87 S 7 11 29.94 1014 10 16.09344 0 0

Powered by AerisWeather